When you browse on this site, cookies collect data to enhance your experience and personalize the content and advertising you see.
Visit our Privacy Policy to learn more. By continuing to use the site, you agree to this use of cookies and data.
  • In Latvia
  • List of Countries
  • For 7 days
  • Water Temperature
  • Weather Map
  • Weather Widgets
  • user-avatar
    Login

    Hourly Weather Huzivka

    Today, 28 May, Thursday

    Time Temperature Precipitation Wind Pressure Humidity
    00:00 +11°C° 0 mm 3 mps 750 mmHg 93%
    01:00 +11°C° 0 mm 4 mps 750 mmHg 93%
    02:00 +12°C° 0 mm 4 mps 750 mmHg 95%
    03:00 +12°C° 0.2 mm 5 mps 749 mmHg 94%
    04:00 +11°C° 0.2 mm 6 mps 749 mmHg 93%
    05:00 +11°C° 0.2 mm 7 mps 748 mmHg 93%
    06:00 +12°C° 1.2 mm 8 mps 748 mmHg 93%
    07:00 +12°C° 1.2 mm 8 mps 747 mmHg 92%
    08:00 +12°C° 1.2 mm 9 mps 747 mmHg 92%
    09:00 +15°C° 0 mm 9 mps 747 mmHg 88%
    10:00 +16°C° 0 mm 9 mps 746 mmHg 84%
    11:00 +17°C° 0 mm 8 mps 746 mmHg 80%
    12:00 +18°C° 0.1 mm 8 mps 745 mmHg 80%
    13:00 +18°C° 0.1 mm 7 mps 745 mmHg 79%
    14:00 +20°C° 0.1 mm 6 mps 744 mmHg 79%
    15:00 +20°C° 0.1 mm 6 mps 744 mmHg 80%
    16:00 +20°C° 0.1 mm 5 mps 743 mmHg 81%
    17:00 +21°C° 0.1 mm 5 mps 743 mmHg 82%
    18:00 +20°C° 0.5 mm 5 mps 743 mmHg 85%
    19:00 +19°C° 0.5 mm 5 mps 743 mmHg 87%
    20:00 +19°C° 0.5 mm 4 mps 742 mmHg 89%
    21:00 +18°C° 0.1 mm 4 mps 743 mmHg 90%
    22:00 +17°C° 0.1 mm 3 mps 743 mmHg 91%
    23:00 +17°C° 0.1 mm 3 mps 743 mmHg 92%

    Tomorrow, 29 May, Friday

    Time Temperature Precipitation Wind Pressure Humidity
    00:00 +16°C° 0.2 mm 3 mps 743 mmHg 93%
    01:00 +16°C° 0.2 mm 3 mps 743 mmHg 94%
    02:00 +16°C° 0.2 mm 3 mps 743 mmHg 94%
    03:00 +14°C° 0 mm 3 mps 743 mmHg 95%
    04:00 +14°C° 0 mm 3 mps 743 mmHg 95%
    05:00 +14°C° 0 mm 3 mps 743 mmHg 95%
    06:00 +16°C° 0 mm 3 mps 743 mmHg 90%
    07:00 +16°C° 0 mm 3 mps 743 mmHg 85%
    08:00 +17°C° 0 mm 3 mps 743 mmHg 81%
    09:00 +18°C° 0.1 mm 3 mps 743 mmHg 79%
    10:00 +19°C° 0.1 mm 3 mps 743 mmHg 78%
    11:00 +20°C° 0.1 mm 3 mps 743 mmHg 77%
    12:00 +20°C° 0.1 mm 3 mps 742 mmHg 80%
    13:00 +20°C° 0.1 mm 3 mps 742 mmHg 82%
    14:00 +20°C° 0.1 mm 3 mps 742 mmHg 84%
    15:00 +20°C° 0.1 mm 2 mps 741 mmHg 81%
    16:00 +21°C° 0.1 mm 2 mps 741 mmHg 79%
    17:00 +22°C° 0.1 mm 1 mps 741 mmHg 76%
    18:00 +21°C° 0.3 mm 1 mps 741 mmHg 81%
    19:00 +19°C° 0.3 mm 2 mps 741 mmHg 86%
    20:00 +18°C° 0.3 mm 2 mps 740 mmHg 91%
    21:00 +18°C° 0.4 mm 2 mps 740 mmHg 92%
    22:00 +17°C° 0.4 mm 2 mps 740 mmHg 93%
    23:00 +16°C° 0.4 mm 2 mps 740 mmHg 95%

    Day after tomorrow, 30 May, Saturday

    Time Temperature Precipitation Wind Pressure Humidity
    00:00 +16°C° 0.9 mm 2 mps 740 mmHg 95%
    01:00 +16°C° 0.9 mm 2 mps 739 mmHg 96%
    02:00 +16°C° 0.9 mm 2 mps 739 mmHg 97%
    03:00 +16°C° 3.2 mm 3 mps 739 mmHg 97%
    04:00 +16°C° 3.2 mm 3 mps 738 mmHg 98%
    05:00 +16°C° 3.2 mm 3 mps 738 mmHg 98%
    06:00 +16°C° 3.6 mm 3 mps 738 mmHg 98%
    07:00 +14°C° 3.6 mm 4 mps 738 mmHg 97%
    08:00 +14°C° 3.6 mm 4 mps 738 mmHg 97%
    09:00 +14°C° 4.6 mm 5 mps 738 mmHg 96%
    10:00 +13°C° 4.6 mm 5 mps 738 mmHg 95%
    11:00 +13°C° 4.6 mm 6 mps 738 mmHg 94%
    12:00 +14°C° 0.5 mm 5 mps 738 mmHg 91%
    13:00 +15°C° 0.5 mm 4 mps 738 mmHg 88%
    14:00 +15°C° 0.5 mm 4 mps 738 mmHg 85%
    15:00 +17°C° 0.1 mm 3 mps 739 mmHg 84%
    16:00 +18°C° 0.1 mm 3 mps 739 mmHg 82%
    17:00 +18°C° 0.1 mm 3 mps 739 mmHg 80%
    18:00 +17°C° 0.1 mm 3 mps 740 mmHg 84%
    19:00 +14°C° 0.1 mm 3 mps 740 mmHg 87%
    20:00 +13°C° 0.1 mm 4 mps 740 mmHg 91%
    21:00 +13°C° 0 mm 3 mps 741 mmHg 91%
    22:00 +12°C° 0 mm 3 mps 741 mmHg 92%
    23:00 +12°C° 0 mm 3 mps 741 mmHg 92%

    31 May, Sunday

    Time Temperature Precipitation Wind Pressure Humidity
    00:00 +11°C° 0 mm 3 mps 741 mmHg 93%
    01:00 +11°C° 0 mm 3 mps 741 mmHg 94%
    02:00 +10°C° 0 mm 3 mps 741 mmHg 95%
    03:00 +10°C° 0 mm 3 mps 742 mmHg 95%
    04:00 +10°C° 0 mm 4 mps 742 mmHg 94%
    05:00 +11°C° 0 mm 4 mps 742 mmHg 94%
    06:00 +12°C° 0.1 mm 4 mps 742 mmHg 91%
    07:00 +13°C° 0.1 mm 5 mps 742 mmHg 88%
    08:00 +14°C° 0.1 mm 5 mps 742 mmHg 85%
    09:00 +15°C° 0.5 mm 5 mps 742 mmHg 81%
    10:00 +16°C° 0.5 mm 5 mps 742 mmHg 77%
    11:00 +17°C° 0.5 mm 6 mps 743 mmHg 73%
    12:00 +19°C° 0.8 mm 5 mps 742 mmHg 73%
    13:00 +19°C° 0.8 mm 5 mps 742 mmHg 72%
    14:00 +19°C° 0.8 mm 4 mps 742 mmHg 71%
    15:00 +19°C° 0.5 mm 4 mps 742 mmHg 73%
    16:00 +18°C° 0.5 mm 3 mps 742 mmHg 75%
    17:00 +18°C° 0.5 mm 3 mps 742 mmHg 76%
    18:00 +16°C° 0 mm 3 mps 742 mmHg 80%
    19:00 +15°C° 0 mm 2 mps 743 mmHg 84%
    20:00 +14°C° 0 mm 2 mps 743 mmHg 87%
    21:00 +13°C° 0 mm 1 mps 743 mmHg 88%
    22:00 +13°C° 0 mm 1 mps 743 mmHg 88%
    23:00 +12°C° 0 mm 1 mps 743 mmHg 89%

    1 June, Monday

    Time Temperature Precipitation Wind Pressure Humidity
    00:00 +12°C° 0 mm 1 mps 743 mmHg 89%
    01:00 +12°C° 0 mm 1 mps 743 mmHg 88%
    02:00 +10°C° 0 mm 0 mps 743 mmHg 88%
    03:00 +11°C° 0 mm 0 mps 743 mmHg 88%
    04:00 +11°C° 0 mm 0 mps 743 mmHg 88%
    05:00 +12°C° 0 mm 0 mps 744 mmHg 87%
    06:00 +13°C° 0 mm 0 mps 744 mmHg 83%
    07:00 +16°C° 0 mm 1 mps 744 mmHg 78%
    08:00 +18°C° 0 mm 1 mps 745 mmHg 74%
    09:00 +19°C° 0.1 mm 1 mps 744 mmHg 70%
    10:00 +20°C° 0.1 mm 1 mps 744 mmHg 66%
    11:00 +21°C° 0.1 mm 1 mps 744 mmHg 63%
    12:00 +22°C° 0.4 mm 1 mps 744 mmHg 62%
    13:00 +22°C° 0.4 mm 1 mps 744 mmHg 60%
    14:00 +23°C° 0.4 mm 1 mps 744 mmHg 59%
    15:00 +21°C° 1.3 mm 2 mps 744 mmHg 66%
    16:00 +20°C° 1.3 mm 2 mps 744 mmHg 73%
    17:00 +19°C° 1.3 mm 3 mps 744 mmHg 80%
    18:00 +18°C° 0.7 mm 4 mps 744 mmHg 83%
    19:00 +15°C° 0.7 mm 4 mps 744 mmHg 87%
    20:00 +14°C° 0.7 mm 5 mps 744 mmHg 91%
    21:00 +13°C° 0 mm 5 mps 744 mmHg 91%
    22:00 +13°C° 0 mm 5 mps 744 mmHg 91%
    23:00 +12°C° 0 mm 5 mps 744 mmHg 91%

    2 June, Tuesday

    Time Temperature Precipitation Wind Pressure Humidity
    00:00 +11°C° 0 mm 4 mps 744 mmHg 90%
    01:00 +11°C° 0 mm 4 mps 744 mmHg 89%
    02:00 +10°C° 0 mm 4 mps 744 mmHg 88%
    03:00 +10°C° 0 mm 4 mps 744 mmHg 88%
    04:00 +10°C° 0 mm 4 mps 744 mmHg 89%
    05:00 +8°C° 0 mm 5 mps 744 mmHg 89%
    06:00 +10°C° 0 mm 5 mps 745 mmHg 85%
    07:00 +13°C° 0 mm 5 mps 745 mmHg 81%
    08:00 +14°C° 0 mm 6 mps 745 mmHg 77%
    09:00 +15°C° 0.1 mm 6 mps 745 mmHg 75%
    10:00 +16°C° 0.1 mm 6 mps 745 mmHg 72%
    11:00 +16°C° 0.1 mm 6 mps 745 mmHg 70%
    12:00 +16°C° 0.3 mm 5 mps 745 mmHg 70%
    13:00 +16°C° 0.3 mm 5 mps 745 mmHg 71%
    14:00 +16°C° 0.3 mm 5 mps 745 mmHg 71%
    15:00 +16°C° 0.1 mm 5 mps 745 mmHg 72%
    16:00 +15°C° 0.1 mm 5 mps 745 mmHg 73%
    17:00 +15°C° 0.1 mm 5 mps 745 mmHg 74%
    18:00 +14°C° 0 mm 5 mps 745 mmHg 78%
    19:00 +12°C° 0 mm 4 mps 745 mmHg 81%
    20:00 +11°C° 0 mm 3 mps 746 mmHg 85%
    21:00 +10°C° 0 mm 3 mps 746 mmHg 86%
    22:00 +10°C° 0 mm 3 mps 746 mmHg 87%
    23:00 +9°C° 0 mm 3 mps 746 mmHg 88%
    Show more